Terminal Aerodrome Forecast
Issued by NWS Jackson, KY

Home | Current Version | Previous Version | Text Only | Print | Product List | Glossary On
Versions: 1 2 3 4 5 6 7 8 9 10 11 12 13 14 15 16 17 18
506
FTUS43 KJKL 100521
TAFJKL
TAF
KJKL 100521Z 1006/1106 26007KT P6SM BKN020 OVC030
     FM101200 27009KT P6SM -SHSN OVC020
     FM101400 27005KT P6SM VCSH BKN020
     FM102300 27009KT P6SM BKN025=

USA.gov is the U.S. government's official web portal to all federal, state and local government web resources and services.